Norfolk International Airport Airport (ORF)

 

Airport Diagram
Current Weather/Forecast (VFR Conditions)
METAR KORF 282251Z 22008KT 10SM OVC070 23/19 A3003 RMK AO2 SLP167 T02330189
TAF KORF 281729Z 2818/2918 21012KT P6SM SCT030 BKN150 FM282300 20006KT P6SM BKN120 FM290700 21007KT P6SM OVC050 FM291400 19012G22KT P6SM VCSH OVC015

All Charts
General
Chart Name Download
AIRPORT DIAGRAM
TAKEOFF MINIMUMS
ALTERNATE MINIMUMS

Departures
Chart Name Download
KISRR THREE

Arrivals
Chart Name Download
DRONE TWO
DRONE TWO, CONT.1
TERKS TWO

Approaches
Chart Name Download
ILS OR LOC RWY 05
ILS OR LOC RWY 23
RNAV (RNP) Y RWY 05
RNAV (RNP) Y RWY 23
RNAV (GPS) RWY 14
RNAV (GPS) RWY 32
RNAV (GPS) Z RWY 05
RNAV (GPS) Z RWY 23
VOR/DME RWY 32
VOR RWY 14
RIVER VISUAL RWY 05


Inbound Traffic (Arrivals)

No inbound traffic.


Outbound Traffic (Departures)

No outbound traffic.